User: anonymous   Login
Location: Unspecified
(0.0000°N, 0.0000°E)
Time: 02:48:00
(UTC+00:00)
Language:

DNEPR OBJECT AC - Orbit

View from above orbital plane
View from above orbital plane
View from above satellite
View from above satellite

Ground track
Ground track

The orbit data is extracted from the following two-line orbital elements,

1 39442U 13066AC  17147.40111284 +.00000387 +00000-0 +45346-4 0  9993
2 39442 097.6505 209.3873 0030580 292.6524 067.1461 14.90158027188979
Epoch (UTC): 27 May 2017 09:37:36
Eccentricity: 0.0030580
inclination: 97.6505°
perigee height: 576 km
apogee height: 619 km
right ascension of ascending node: 209.3873°
argument of perigee: 292.6524°
revolutions per day: 14.90158027
mean anomaly at epoch: 67.1461°
orbit number at epoch: 18897

The dashed part of the orbit path shows where the satellite is in the earth's shadow,  

DLR